#timestamp,LO_Frequency,Hit 
1503478815.7,286047001.6,N
1503478835.6,286047001.6,N
1503478855.4,286047000.5,N
1503478875.2,286047002.8,N
1503478895.1,286046998.3,N
1503478896.0,286046998.3,N
1503478915.8,286046999.2,N
1503478935.6,286046999.6,N
1503478955.4,286046997.6,N
1503478975.3,286046994.6,P
1503478995.1,286046992.0,N
1503479015.9,286046996.6,N
1503479035.7,286046999.9,N
1503479055.5,286047001.9,N
1503479075.3,286046999.7,N
1503479095.2,286047000.3,N
1503479115.0,286047000.0,N
1503479115.9,286047000.0,N
1503479135.7,286047002.8,N
1503479155.6,286047000.1,N
1503479175.4,286047000.9,N
1503479195.2,286047000.0,N
1503479215.1,286047001.2,N
1503479216.0,286047001.2,N
1503479235.8,286047001.5,N
1503479255.6,286046999.9,N
1503479275.5,286046999.9,N
1503479295.3,286046998.4,N
1503479315.1,286047000.7,N
1503479335.9,286047002.7,N
1503479355.7,286047000.6,N
1503479375.5,286047003.6,N
1503479395.3,286047003.1,N
1503479415.2,286047001.4,N
1503479435.0,286047004.3,N
1503479435.9,286047004.3,N
1503479455.7,286047003.7,N
1503479475.6,286047003.5,N
1503479495.4,286047000.2,N
1503479515.2,286047001.8,N
1503479535.1,286047005.4,N
1503479536.0,286047005.4,N
1503479555.8,286047004.1,N
1503479575.6,286047005.0,N
1503479595.5,286047002.5,N
1503479615.3,286047001.1,N
1503479635.1,286046998.1,N
1503479655.9,286047003.1,N
1503479675.7,286047003.5,N
1503479695.5,286047002.0,N
1503479715.4,286047001.6,N
1503479735.2,286047001.3,N
1503479755.0,286047001.6,N
1503479755.9,286047001.6,N
1503479775.8,286047002.0,N
1503479795.6,286046998.1,N
1503479815.4,286046998.4,N
1503479835.3,286047000.1,N
1503479855.1,286047001.8,N
1503479875.8,286047003.9,N
1503479895.7,286047005.2,N
1503479915.5,286047005.0,N
1503479935.3,286047003.3,N
1503479955.2,286047008.8,P
1503479975.9,286047002.3,N
1503479995.7,286047002.5,N
1503480015.6,286047001.2,N
1503480035.4,286047000.0,N
1503480055.2,286047002.6,N
1503480075.1,286047000.9,N
1503480076.0,286047000.9,N
1503480095.8,286047002.0,N
1503480115.6,286047000.9,N
1503480135.5,286046999.8,N
1503480155.3,286047003.5,N
1503480175.1,286047003.1,N
1503480195.9,286047003.9,N
1503480215.7,286047004.1,N
1503480235.5,286047002.3,N
1503480255.4,286047004.2,N
1503480275.2,286047000.7,N
1503480295.0,286046998.8,N
1503480295.9,286046998.8,N
1503480315.8,286047000.2,N
1503480335.6,286047000.1,N
1503480355.4,286047001.1,N
1503480375.3,286047007.6,P
1503480395.1,286047003.1,N
1503480396.0,286047003.1,N
1503480415.8,286047004.7,N
1503480435.7,286047005.5,N
1503480455.5,286047003.9,N
1503480475.3,286047005.4,P
1503480495.2,286047001.2,N
1503480515.9,286046997.7,N
1503480535.7,286046994.5,N
1503480555.6,286046992.5,N
1503480575.4,286046993.5,N
1503480595.2,286046992.2,N
1503480615.0,286046992.2,N
1503480616.0,286046992.2,N
1503480635.8,286046994.5,N
1503480655.6,286046997.5,N
1503480675.4,286046994.4,N
1503480695.3,286046992.2,N
1503480715.1,286046994.3,N
1503480735.8,286046992.7,N
1503480755.7,286046991.7,N
1503480775.5,286046992.9,N
1503480795.3,286046993.0,N
1503480815.2,286046992.4,N
1503480835.9,286046990.2,N
1503480855.7,286046994.5,N
1503480875.6,286046992.4,N
1503480895.4,286046991.7,N
1503480915.2,286046995.4,N
1503480935.1,286046999.6,N
1503480936.0,286046999.6,N
1503480955.8,286046993.6,N
1503480975.6,286046990.2,N
1503480995.5,286046993.0,N
1503481015.3,286046996.0,N
1503481035.1,286046997.4,N
1503481055.8,286046994.7,N
1503481075.7,286046995.9,N
1503481095.5,286046997.9,N
1503481115.3,286047000.5,N
1503481135.2,286046997.3,N
1503481155.9,286046994.9,N
1503481175.7,286046994.0,N
1503481195.6,286046991.9,P
1503481215.4,286047002.2,N
1503481235.2,286046999.9,N
1503481255.1,286047000.3,N
1503481256.0,286047000.3,N
1503481275.8,286046999.1,N
1503481295.6,286046999.5,N
1503481315.5,286046998.2,N
1503481335.3,286046998.6,N
1503481355.1,286047001.2,N
1503481375.9,286047000.3,N
1503481395.7,286046997.2,N
1503481415.5,286046997.6,N
1503481435.4,286047000.9,N
1503481455.2,286047000.3,N
1503481475.0,286046999.6,N
1503481475.9,286046999.6,N
1503481495.8,286046999.1,N
1503481515.6,286047002.4,N
1503481535.4,286047000.1,N
1503481555.2,286047003.2,N
1503481575.1,286047002.0,N
1503481576.0,286047002.0,N
1503481595.8,286047003.5,N
1503481615.6,286046998.3,N
1503481635.5,286046997.1,N
1503481655.3,286046998.2,N
1503481675.1,286046999.4,N
1503481695.9,286046996.7,N
1503481715.7,286046997.2,N
1503481735.5,286046998.9,N
1503481755.4,286047003.9,N
1503481775.2,286046998.4,N
1503481795.0,286046998.2,N
1503481795.9,286046998.2,N
1503481815.8,286047001.7,N
1503481835.6,286047001.6,N
1503481855.4,286047004.0,N
1503481875.2,286047006.0,N
1503481895.1,286047003.1,N
1503481896.0,286047003.1,N
1503481915.8,286047004.0,N
1503481935.6,286046999.9,N
1503481955.5,286046998.3,N
1503481975.3,286046997.7,N
1503481995.1,286046999.3,N
1503482015.9,286047001.8,N
1503482035.7,286047001.5,N
1503482055.5,286047001.6,N
1503482075.4,286047003.9,N
1503482095.2,286047005.0,N
1503482115.0,286047007.2,N
1503482115.9,286047007.2,N
1503482135.8,286047004.4,N
1503482155.6,286047002.7,N
1503482175.4,286047002.5,N
1503482195.3,286046999.4,N
1503482215.1,286046997.4,N
1503482216.0,286046997.4,N
1503482235.8,286046999.5,N
1503482255.7,286046999.9,N
1503482275.5,286046999.7,N
1503482295.3,286047003.5,N
1503482315.2,286047000.2,N
1503482335.9,286046998.8,N
1503482355.7,286046998.9,N
1503482375.5,286047000.3,N
1503482395.4,286047000.7,N
